Regional Weather Roundup
Issued by NWS

Home | Current Version | Previous Version | Graphics & Text | Print | Product List | Glossary Off
Versions: 1 2 3 4 5 6 7 8 9 10 11 12 13 14 15 16 17 18 19 20 21 22 23 24 25 26 27 28 29 30 31 32 33 34 35 36 37 38 39 40 41 42 43 44 45 46 47 48 49 50

000
ASUS43 KDTX 262110
RWRMI
MICHIGAN HOURLY REGIONAL WEATHER ROUNDUP
NATIONAL WEATHER SERVICE DETROIT/PONTIAC MI
400 PM EST THU FEB 26 2015

NOTE: "FAIR" INDICATES FEW OR NO CLOUDS BELOW 12,000 FEET WITH NO
SIGNIFICANT WEATHER AND/OR OBSTRUCTION TO VISIBILITY.

MIZ047>049-052>055-059>063-066>070-074>076-081>083-262200-
SOUTHEAST LOWER MICHIGAN

CITY           SKY/WX    TMP DP  RH WIND       PRES   REMARKS
ADRIAN         MIX PCPN  16   3  56 N7        30.18R WCI   6
ALMA           SUNNY     12  -3  52 NW8       30.22R WCI   0
ANN ARBOR      CLOUDY    15   3  59 N9        30.17R WCI   3
BAD AXE        LGT SNOW   9   3  77 NE13      30.20S WCI  -7
CARO           MOSUNNY   10  -2  57 N7        30.20R WCI   0
DETROIT CITY   CLOUDY    16   5  62 N12       30.18R HAZE    WCI   3
DETROIT        LGT SNOW  16   5  62 N12       30.18R WCI   3
FLINT          FLURRIES  13   1  59 N14       30.20R WCI  -2
GROSSE ILE     LGT SNOW  16  10  79 NE8       30.16S WCI   5
HILLSDALE      CLOUDY    14   2  61 N6        30.14R WCI   5
HOWELL         CLOUDY    11  -1  59 N9        30.17S WCI  -2

CITY           SKY/WX    TMP DP  RH WIND       PRES   REMARKS
JACKSON        MOSUNNY   13   1  59 N9        30.17R WCI   1
LAMBERTVILLE   CLOUDY    18   7  62 NW5       30.19R WCI  11
LANSING        SUNNY     11  -2  56 NW7       30.20R WCI   0
LAPEER         CLOUDY    13  -1  53 N8        30.18R WCI   1
MASON          MOSUNNY   11   0  59 NW9       30.18R WCI  -1
MONROE         CLOUDY    16   7  67 N7        30.16R HAZE    WCI   6
MT. CLEMENS    PTSUNNY   13   2  60 N15       30.17R WCI  -3
PONTIAC        PTSUNNY   12   1  61 N10       30.15R WCI  -1
PORT HOPE        N/A     10   0  63 N8        30.22R WCI  -2
PORT HURON     CLOUDY    12   3  67 N8        30.19R WCI   1
TRI CITIES     MOSUNNY   13   1  59 NE7       30.23R WCI   3
TROY           CLOUDY    16   1  51 NW8       30.20R WCI   6
SAGINAW HB     SUNNY     12   1  62 N12       30.23R WCI  -2
$$
MIZ043>046-050>051-056>058-064>065-071>073-077>080-262200-
SOUTHWEST LOWER MICHIGAN

CITY           SKY/WX    TMP DP  RH WIND       PRES   REMARKS
BATTLE CREEK   PTSUNNY   15   0  51 N7        30.18R WCI   5
BENTON HARBOR  MOSUNNY   13   0  56 VRB5      30.24R WCI   5
BIG RAPIDS     SUNNY     12  -5  46 N7        30.19S WCI   1
COLDWATER      CLOUDY    15   2  58 N7        30.17R WCI   5
FREMONT        FAIR      13  -8  38 N9        30.22R WCI   0
HOLLAND        SUNNY     15  -6  39 NE6       30.24R WCI   6
GRAND RAPIDS   PTSUNNY   15  -5  40 N7        30.21R WCI   5
IONIA          FAIR      13  -4  46 N8        30.19S WCI   2
KALAMAZOO      MOSUNNY   15   0  51 NW13      30.19R WCI   1
LUDINGTON      SUNNY     13  -6  43 N16       30.28R WCI  -4
MARSHALL       PTSUNNY   12  -2  54 N3        30.17R
MOUNT PLEASANT SUNNY     13  -4  46 N6        30.21R WCI   4
MUSKEGON       MOSUNNY   15  -8  35 N13       30.24R WCI   1
SOUTH HAVEN    MOSUNNY   15  -3  44 N10G16    30.24R WCI   2
$$
MIZ016>042-262200-
NORTHERN LOWER MICHIGAN

CITY           SKY/WX    TMP DP  RH WIND       PRES   REMARKS
ALPENA         SUNNY      8  -7  50 N12       30.23S WCI  -7
BEAVER ISLAND  SUNNY      6  -4  61 NW7       30.28S WCI  -5
BELLAIRE       SUNNY      7 -12  41 NW3       30.29R
CADILLAC       SUNNY      7  -8  51 N8        30.17R WCI  -6
CHARLEVOIX     SUNNY      4  -8  57 CALM      30.32S
FRANKFORT      MOSUNNY    7  -3  64 NE7       30.30R WCI  -5
GAYLORD        SUNNY      7  -9  48 VRB5      30.17R WCI  -2
GRAYLING       MOSUNNY    9  -8  47 NW8       30.19R WCI  -4
HARBOR SPRINGS SUNNY      6 -11  44 N6        30.26S WCI  -4
HOUGHTON LAKE  SUNNY     11  -8  42 NW7       30.18R WCI   0
MANISTEE       SUNNY     10  -9  40 N9        30.28R WCI  -2
OSCODA         MOSUNNY    9  -2  63 NE12      30.22R WCI  -6
PELLSTON       SUNNY      6 -10  47 NW10      30.27S WCI  -9
ROGERS CITY    SUNNY      6  -4  64 NW9G17    30.26S WCI  -8
TRAVERSE CITY  MOSUNNY    5  -9  52 N9        30.29R WCI  -9
$$
MIZ007>008-015-262200-
EASTERN UPPER MICHIGAN

CITY           SKY/WX    TMP DP  RH WIND       PRES   REMARKS
KINROSS        SUNNY      5  -6  61 NW13      30.25R WCI -12
MACKINAC ISLAN CLOUDY     4  -7  61 SW5       30.25S WCI  -5
NEWBERRY       MOSUNNY    5  -6  61 N9        30.26R WCI  -9
S. S. MARIE    SUNNY      3  -9  57 NW15G22   30.26R WCI -16
MUNISING         N/A      6  -5  60 N15       30.32R WCI -12
$$
MIZ004>006-011>014-085-262200-
CENTRAL UPPER MICHIGAN

CITY           SKY/WX    TMP DP  RH WIND       PRES   REMARKS
MANISTIQUE     MOSUNNY    8  -5  55 N10       30.28S WCI  -7
ESCANABA       MOSUNNY   10 -11  37 N6        30.31R WCI   1
MENOMINEE      MOSUNNY    9  -2  61 SE6       30.30S WCI  -1
SAWYER-GWINN   MOSUNNY    5  -6  61 NE7       30.24S WCI  -7
$$
MIZ001>003-009>011-084-262200-
WESTERN UPPER MICHIGAN

CITY           SKY/WX    TMP DP  RH WIND       PRES   REMARKS
IRON MOUNTAIN  SUNNY     10  -8  44 N12       30.24S WCI  -5
HOUGHTON       CLOUDY     3  -7  63 W18       30.27F WCI -17
COPPER HARBOR    N/A      4  -7  60 NW13G22   30.31S WCI -13
IRONWOOD       SUNNY      3  -6  66 W9        30.29S WCI -11
$$

ABBREVIATIONS USED IN REMARKS
   TC - TEMPERATURE IN CELSIUS
  WCI - WIND CHILL INDEX
   HX - HEAT INDEX
  VSB - VISIBILITY




USA.gov is the U.S. government's official web portal to all federal, state and local government web resources and services.